This is the latest recevied weather packets stored in our database for station/object IT9CYW-12. If no packets are shown the sender has not sent any weather packets the latest 10 day(s).
| Time | Temp. | Humidity | Pressure | Rain* | Wind** | Luminosity | Snow |
|---|---|---|---|---|---|---|---|
| 1777942017 | 15.56° C | 69% | 979.9 hPa | - | - | 0 W/m² | - |
| 1777940216 | 16.11° C | 67% | 980 hPa | - | - | 0 W/m² | - |
| 1777937515 | 16.67° C | 64% | 980.5 hPa | - | - | 0 W/m² | - |
| 1777935714 | 16.11° C | 61% | 981 hPa | - | - | 0 W/m² | - |
| 1777932112 | 15.56° C | 63% | 981.2 hPa | - | - | 0 W/m² | - |
| 1777931212 | 16.11° C | 60% | 981.2 hPa | - | - | 0 W/m² | - |
| 1777929416 | 16.67° C | 58% | 981.5 hPa | - | - | 0 W/m² | - |
| 1777926714 | 16.67° C | 59% | 981.7 hPa | - | - | 0 W/m² | - |
| 1777924914 | 16.67° C | 57% | 981.5 hPa | - | - | 0 W/m² | - |
| 1777924014 | 16.67° C | 53% | 981.4 hPa | - | - | 0 W/m² | - |
| 1777923113 | 16.11° C | 68% | 981.4 hPa | - | - | 0 W/m² | - |
| 1777919513 | 16.67° C | 68% | 981.4 hPa | - | - | 0 W/m² | - |
| 1777918613 | 16.67° C | 66% | 981.2 hPa | - | - | 0 W/m² | - |
| 1777917712 | 16.67° C | 65% | 981.2 hPa | - | - | 1 W/m² | - |
| 1777915912 | 17.22° C | 61% | 981.2 hPa | - | - | 9 W/m² | - |
| 1777915012 | 17.22° C | 58% | 981.2 hPa | - | - | 19 W/m² | - |
| 1777914112 | 17.78° C | 56% | 980.9 hPa | - | - | 37 W/m² | - |
| 1777912311 | 17.78° C | 52% | 980.9 hPa | - | - | 63 W/m² | - |
| 1777911411 | 18.33° C | 49% | 981.2 hPa | - | - | 77 W/m² | - |
| 1777910511 | 18.33° C | 48% | 981.2 hPa | - | - | 104 W/m² | - |
| 1777909611 | 18.33° C | 50% | 981.2 hPa | - | - | 133 W/m² | - |
| 1777907345 | 18.33° C | 52% | 980.9 hPa | - | - | 155 W/m² | - |
| 1777906445 | 18.33° C | 52% | 981 hPa | - | - | 369 W/m² | - |
| 1777905544 | 18.89° C | 52% | 981 hPa | - | - | 167 W/m² | - |
| 1777903743 | 19.44° C | 56% | 980.9 hPa | - | - | 416 W/m² | - |
* Rain since midnight (hover to see other rain measurements)
** Current wind speed in m/s (hover to see current wind gust speed)